Nacogdoches, TX

4:53 AM CST on December 07, 2016 (GMT -0600)
Mangham Regional

Weather History for KOCH - December, 2012

Change the Weather History Date:

Saturday, December 22, 2012

  Actual Average Record
Temperature  
Mean Temperature 46 °F -  
Max Temperature 66 °F 56 °F 75 °F (1996)
Min Temperature 26 °F 34 °F 24 °F (1999)
Degree Days  
Heating Degree Days 19    
Moisture  
Dew Point 34 °F    
Average Humidity 63    
Maximum Humidity 93    
Minimum Humidity 30    
Precipitation  
Precipitation 0.00 in - - ()
Sea Level Pressure  
Sea Level Pressure 30.27 in    
Wind  
Wind Speed 3 mph (South)    
Max Wind Speed 16 mph    
Max Gust Speed 25 mph    
Visibility 10 miles    
Events      
Averages and records for this station are not official NWS values.
T = Trace of Precipitation, MM = Missing Value Source: NWS Daily Summary

Daily Weather History Graph

Daily Weather History Graph

Search for Another Location

Airport or City:

Trip Planner

Search our weather history database for the weather conditions in past years. The results will help you decide how hot, cold, wet, or windy it might be!

Date:

Astronomy

Dec. 22, 2012 Rise Set
Actual Time 7:15 AM CST 5:20 PM CST
Civil Twilight 6:48 AM CST 5:47 PM CST
Nautical Twilight 6:17 AM CST 6:17 PM CST
Astronomical Twilight 5:48 AM CST 6:47 PM CST
Moon 1:28 PM CST (12/22) 2:12 AM CST (12/22)
Length of Visible Light 10h 59m
Length of Day
10h 05m
Waxing Gibbous, 74% of the Moon is Illuminated
Dec 22
Waxing Gibbous
Dec 28
Full
Jan 4
Last Quarter
Jan 11
New
Jan 18
First Quarter

Hourly Weather History & Observations

Time (CST) Temp. Windchill Dew Point Humidity Pressure Visibility Wind Dir Wind Speed Gust Speed Precip Events Conditions
12:15 AM 33.8 °F - 30.2 °F 87% 30.37 in 10.0 mi Calm Calm - N/A   Clear
12:35 AM 35.6 °F - 30.2 °F 81% 30.36 in 10.0 mi Calm Calm - N/A   Clear
12:55 AM 35.6 °F - 28.4 °F 75% 30.36 in 10.0 mi Calm Calm - N/A   Clear
1:15 AM 35.6 °F - 30.2 °F 81% 30.36 in 10.0 mi Calm Calm - N/A   Clear
1:35 AM 35.6 °F - 28.4 °F 75% 30.36 in 10.0 mi Calm Calm - N/A   Clear
1:55 AM 33.8 °F - 28.4 °F 81% 30.36 in 10.0 mi Calm Calm - N/A   Clear
2:15 AM 33.8 °F - 28.4 °F 81% 30.35 in 10.0 mi Calm Calm - N/A   Clear
2:35 AM 32.0 °F - 28.4 °F 87% 30.35 in 10.0 mi Calm Calm - N/A   Clear
2:55 AM 32.0 °F - 28.4 °F 87% 30.35 in 10.0 mi Calm Calm - N/A   Clear
3:15 AM 30.2 °F - 26.6 °F 86% 30.35 in 10.0 mi Calm Calm - N/A   Clear
3:35 AM 30.2 °F - 26.6 °F 86% 30.35 in 10.0 mi Calm Calm - N/A   Clear
3:55 AM 30.2 °F - 26.6 °F 86% 30.35 in 10.0 mi Calm Calm - N/A   Clear
4:15 AM 28.4 °F - 26.6 °F 93% 30.34 in 10.0 mi Calm Calm - N/A   Clear
4:35 AM 28.4 °F - 26.6 °F 93% 30.34 in 10.0 mi Calm Calm - N/A   Clear
4:55 AM 28.4 °F - 26.6 °F 93% 30.33 in 10.0 mi Calm Calm - N/A   Clear
5:15 AM 28.4 °F - 26.6 °F 93% 30.33 in 10.0 mi Calm Calm - N/A   Clear
5:35 AM 28.4 °F - 24.8 °F 86% 30.33 in 10.0 mi Calm Calm - N/A   Clear
5:55 AM 28.4 °F - 24.8 °F 86% 30.34 in 10.0 mi Calm Calm - N/A   Clear
6:15 AM 26.6 °F - 24.8 °F 93% 30.34 in 10.0 mi Calm Calm - N/A   Clear
6:35 AM 26.6 °F - 23.0 °F 86% 30.34 in 10.0 mi Calm Calm - N/A   Clear
6:55 AM 26.6 °F - 24.8 °F 93% 30.35 in 10.0 mi Calm Calm - N/A   Clear
7:15 AM 26.6 °F - 24.8 °F 93% 30.35 in 10.0 mi Calm Calm - N/A   Clear
7:35 AM 26.6 °F - 24.8 °F 93% 30.36 in 10.0 mi Calm Calm - N/A   Clear
7:55 AM 26.6 °F - 24.8 °F 93% 30.36 in 10.0 mi Calm Calm - N/A   Clear
8:15 AM 32.0 °F - 28.4 °F 87% 30.36 in 10.0 mi Calm Calm - N/A   Clear
8:35 AM 33.8 °F - 28.4 °F 81% 30.36 in 10.0 mi Calm Calm - N/A   Clear
8:55 AM 37.4 °F - 33.8 °F 87% 30.36 in 10.0 mi Calm Calm - N/A   Clear
9:15 AM 42.8 °F - 33.8 °F 70% 30.37 in 10.0 mi Calm Calm - N/A   Clear
9:35 AM 46.4 °F 45.2 °F 30.2 °F 53% 30.37 in 10.0 mi SW 3.5 mph - N/A   Clear
9:55 AM 51.8 °F - 26.6 °F 38% 30.37 in 10.0 mi SSW 5.8 mph - N/A   Clear
10:15 AM 53.6 °F - 26.6 °F 35% 30.36 in 10.0 mi South 5.8 mph - N/A   Clear
10:35 AM 55.4 °F - 26.6 °F 33% 30.36 in 10.0 mi SSW 6.9 mph - N/A   Clear
10:55 AM 57.2 °F - 32.0 °F 38% 30.35 in 10.0 mi SW 6.9 mph - N/A   Clear
11:15 AM 57.2 °F - 35.6 °F 44% 30.34 in 10.0 mi SW 9.2 mph - N/A   Clear
11:35 AM 59.0 °F - 35.6 °F 42% 30.33 in 10.0 mi SSW 10.4 mph - N/A   Clear
11:55 AM 62.6 °F - 37.4 °F 39% 30.31 in 10.0 mi SW 10.4 mph - N/A   Clear
12:15 PM 62.6 °F - 33.8 °F 34% 30.30 in 10.0 mi SSW 12.7 mph 19.6 mph N/A   Clear
12:35 PM 62.6 °F - 35.6 °F 37% 30.28 in 10.0 mi SW 13.8 mph 19.6 mph N/A   Clear
12:55 PM 64.4 °F - 35.6 °F 34% 30.27 in 10.0 mi WSW 8.1 mph 18.4 mph N/A   Clear
1:15 PM 64.4 °F - 35.6 °F 34% 30.26 in 10.0 mi South 10.4 mph - N/A   Clear
1:35 PM 64.4 °F - 35.6 °F 34% 30.25 in 10.0 mi South 13.8 mph 19.6 mph N/A   Clear
1:55 PM 64.4 °F - 33.8 °F 32% 30.23 in 10.0 mi SW 12.7 mph 19.6 mph N/A   Clear
2:15 PM 66.2 °F - 33.8 °F 30% 30.22 in 10.0 mi SW 15.0 mph 18.4 mph N/A   Clear
2:35 PM 66.2 °F - 33.8 °F 30% 30.22 in 10.0 mi SSW 16.1 mph 25.3 mph N/A   Clear
2:55 PM 64.4 °F - 33.8 °F 32% 30.21 in 10.0 mi SSW 15.0 mph - N/A   Clear
3:15 PM 64.4 °F - 35.6 °F 34% 30.20 in 10.0 mi SSW 8.1 mph - N/A   Clear
3:35 PM 64.4 °F - 37.4 °F 37% 30.19 in 10.0 mi SSW 11.5 mph 18.4 mph N/A   Clear
3:55 PM 64.4 °F - 37.4 °F 37% 30.20 in 10.0 mi South 11.5 mph - N/A   Clear
4:35 PM 62.6 °F - 37.4 °F 39% 30.19 in 10.0 mi SSW 10.4 mph - N/A   Clear
4:55 PM 62.6 °F - 37.4 °F 39% 30.20 in 10.0 mi SSW 8.1 mph - N/A   Clear
5:15 PM 59.0 °F - 37.4 °F 45% 30.20 in 10.0 mi South 6.9 mph - N/A   Clear
5:35 PM 57.2 °F - 37.4 °F 48% 30.20 in 10.0 mi South 6.9 mph - N/A   Clear
5:55 PM 59.0 °F - 39.2 °F 48% 30.20 in 10.0 mi SSW 9.2 mph - N/A   Clear
6:15 PM 59.0 °F - 39.2 °F 48% 30.19 in 10.0 mi South 5.8 mph - N/A   Clear
6:35 PM 59.0 °F - 39.2 °F 48% 30.18 in 10.0 mi SSE 6.9 mph - N/A   Clear
6:55 PM 59.0 °F - 39.2 °F 48% 30.18 in 10.0 mi SSE 6.9 mph - N/A   Clear
7:15 PM 57.2 °F - 41.0 °F 55% 30.17 in 10.0 mi SSE 6.9 mph - N/A   Clear
7:35 PM 57.2 °F - 41.0 °F 55% 30.17 in 10.0 mi SSE 8.1 mph - N/A   Clear
7:55 PM 57.2 °F - 41.0 °F 55% 30.16 in 10.0 mi South 6.9 mph - N/A   Clear
8:15 PM 57.2 °F - 42.8 °F 59% 30.17 in 10.0 mi South 8.1 mph - N/A   Clear
8:35 PM 57.2 °F - 42.8 °F 59% 30.15 in 10.0 mi South 9.2 mph - N/A   Partly Cloudy
8:55 PM 57.2 °F - 42.8 °F 59% 30.15 in 10.0 mi SSE 9.2 mph - N/A   Clear
9:15 PM 57.2 °F - 44.6 °F 63% 30.15 in 10.0 mi SSE 6.9 mph - N/A   Clear
9:35 PM 57.2 °F - 44.6 °F 63% 30.14 in 10.0 mi SSE 9.2 mph 16.1 mph N/A   Clear
9:55 PM 55.4 °F - 44.6 °F 67% 30.15 in 10.0 mi South 6.9 mph - N/A   Clear
10:15 PM 55.4 °F - 44.6 °F 67% 30.16 in 10.0 mi South 6.9 mph - N/A   Mostly Cloudy
10:35 PM 55.4 °F - 44.6 °F 67% 30.15 in 10.0 mi South 8.1 mph - N/A   Overcast
10:55 PM 55.4 °F - 44.6 °F 67% 30.15 in 10.0 mi SSE 10.4 mph - N/A   Mostly Cloudy
11:15 PM 55.4 °F - 44.6 °F 67% 30.15 in 10.0 mi South 6.9 mph - N/A   Mostly Cloudy
11:35 PM 55.4 °F - 46.4 °F 72% 30.14 in 10.0 mi SSE 5.8 mph - N/A   Mostly Cloudy
11:55 PM 55.4 °F - 46.4 °F 72% 30.13 in 10.0 mi SSE 6.9 mph - N/A   Scattered Clouds